GSAT0214 (GALILEO 18) (41862 NORAD) Tracking and Keplerian Element Data

This shows tracking and keplerian element data for the satellite.

Feedback or suggestion? Click here.




ElementValue
Catalog41862
NameGSAT0214 (GALILEO 18)
Epoch Orbit5655
Epoch Day351.8583177
Epoch Year2025
RAAN106.1044
Inclination55.383
Eccentricity0.0001542
Argument of Perigee289.1766
Mean Anonmoly70.7658
Mean Motion1.70474854
Decay Rate-9E-08
L11 41862U 16069D 25351.85831770 -.00000009 00000+0 00000+0 0 9996
L22 41862 55.3830 106.1044 0001542 289.1766 70.7658 1.70474854 56558



Live tracking and technical data element details for GSAT0214 (GALILEO 18) (NORAD 41862). GSAT0214 (GALILEO 18) can be tracked NOW for your location showing map with azimuth and elevation plus other details from your city location.







IsCatalogInMostPopularTable: catalog: 41862, numindb: 794
Update: records affected: 1



GetName: 41862 GSAT0214 (GALILEO 18)

Hit Count: updated at: Sat, 14 Mar 2026 02:30:34 GMT